Location: Napier
(39.4830°S, 176.9170°E)
Time: 13:44:47
(UTC+13:00)

H-2A R/B - Pass Details

Date: 24 January 2019
Orbit: 734 x 836 km, 98.3° (Epoch: 16 February)

Event Time Altitude Azimuth Distance (km) Brightness Sun altitude
Rises 22:35:28 0° 167° (SSE) 3,262 5.8 -19.3°
Reaches altitude 10° 22:37:49 10° 167° (SSE) 2,315 4.9 -19.6°
Maximum altitude 22:42:55 88° 80° (E) 759 1.9 -20.2°
Enters shadow 22:45:38 28° 347° (NNW) 1,390 3.0 -20.6°
